Location: Exeidioux
(45.6312°N, 1.6819°E)
Time: 13:10:06
(UTC+00:00)

SJ 16-02 - Pass Details

Date: 03 March 2021
Orbit: 605 x 617 km, 75.0° (Epoch: 12 April)

Event Time Altitude Azimuth Distance (km) Brightness Sun altitude
Rises 21:13:04 0° 330° (NNW) 2,883 5.6 -36.1°
Reaches altitude 10° 21:15:30 10° 320° (NW) 1,976 4.6 -36.4°
Enters shadow 21:16:37 16° 311° (NW) 1,604 4.1 -36.6°
